Location: Tierra Monte Subdivision
(35.2092°N, 106.4864°W)
Time: 15:40:47
(UTC+00:00)

Meteor 1-19 Rocket - Pass Details

Date: 30 March 2020
Orbit: 814 x 921 km, 81.2° (Epoch: 27 May)

Event Time Altitude Azimuth Distance (km) Brightness Sun altitude
Exits shadow 11:28:01 10° 196° (SSW) 2,526 6.3 -18.1°
Maximum altitude 11:33:43 69° 279° (W) 929 4.2 -17.0°
Drops below altitude 10° 11:39:21 10° 3° (N) 2,481 6.9 -15.9°
Sets 11:41:45 0° 6° (N) 3,405 7.7 -15.4°
